Wind_Speed
16 15 16 17 17 18 19 20 20 22 23 24 25 24 23 23 24 25 27 28 30 32 34 36 37 37 38 39 38 37 35 33 33 31 30 26 23 22 23 25 25 25 26 26
13 13 14 15 16 17 18 18 18 19 20 21 21 22 22 23 24 25 27 29 31 34 36 38 39 38 38 37 36 33 33 31 30 29 28 26 25 23 22 21 21 22 23 24
11 12 13 13 14 15 15 15 16 17 18 19 20 21 21 23 24 26 28 30 33 34 35 36 36 36 36 36 33 32 31 30 30 30 29 27 26 24 24 23 23 24 24 24
9 10 11 12 12 12 13 14 15 16 18 19 20 21 21 22 24 26 28 29 30 30 31 31 30 31 33 33 32 31 31 31 31 31 30 30 29 28 27 27 27 27 27 27
7 8 8 9 10 11 11 12 13 14 15 16 17 19 19 21 23 24 24 25 26 28 28 28 29 30 32 32 33 33 33 33 34 34 34 34 33 32 32 31 31 31 30 30
5 6 6 7 8 9 10 11 12 12 13 13 14 16 17 18 20 20 22 23 24 25 25 27 29 30 32 33 35 35 36 37 38 38 38 38 38 38 38 37 36 36 36 36
3 4 5 6 7 8 9 10 11 11 11 12 13 14 15 17 19 21 23 24 25 27 28 30 31 32 34 36 38 39 40 40 41 42 43 43 43 43 43 43 43 42 42 43
3 3 5 6 8 9 10 11 12 13 13 12 13 14 16 18 20 22 24 26 28 29 31 32 34 35 37 38 40 41 42 44 45 46 47 48 48 48 48 48 49 48 48 48
4 4 5 7 9 9 10 12 14 16 15 15 16 16 17 19 22 24 27 29 31 33 34 36 37 38 39 41 42 43 45 46 47 48 49 50 51 52 53 53 54 54 54 54
5 5 6 7 9 10 11 13 14 15 17 18 18 18 20 22 25 28 31 33 35 36 38 39 40 42 43 44 45 46 47 48 49 50 51 52 52 53 55 56 57 58 58 59
7 7 7 9 9 11 12 14 15 17 18 20 21 21 23 26 29 32 34 36 38 39 41 43 45 47 48 49 50 51 52 53 53 53 52 53 53 54 55 56 57 59 60 61
8 9 9 10 10 11 13 14 16 18 19 20 23 25 27 30 32 34 37 39 40 42 45 47 49 51 52 54 55 56 56 56 55 55 54 53 53 52 52 53 53 54 55 58
8 9 10 11 11 12 14 15 17 18 20 22 25 27 30 32 34 36 39 41 43 46 48 51 53 55 56 57 57 57 57 56 57 57 56 54 53 52 50 49 48 47 48 50
9 9 10 11 12 13 14 16 18 20 21 24 26 29 31 33 36 38 41 44 46 48 51 54 56 57 57 57 57 57 57 58 59 58 57 55 54 52 50 48 46 45 44 44
10 11 11 12 13 14 16 17 19 20 23 25 28 30 32 35 38 41 44 46 48 51 54 56 56 56 56 56 56 56 57 57 57 57 57 55 54 52 50 48 46 44 43 42
11 12 13 13 14 15 16 18 20 22 24 27 29 31 34 37 41 44 46 49 51 54 55 55 55 56 56 56 55 55 55 56 57 57 56 55 54 52 50 49 47 45 42 41
12 13 14 14 15 16 18 20 22 24 26 29 32 34 37 39 42 46 49 51 54 56 55 55 55 55 55 56 56 56 56 57 57 57 56 55 54 53 51 49 48 46 44 42
11 13 14 16 17 18 20 22 24 26 28 31 34 37 39 42 44 47 51 54 55 55 54 54 55 55 55 56 56 56 57 57 57 56 55 55 53 52 49 48 46 44 42 41
12 14 16 17 19 21 23 25 27 29 30 33 36 39 41 44 45 47 51 53 54 54 53 54 55 56 56 56 56 57 57 57 56 55 53 51 49 48 46 45 43 41 40 39
13 15 17 19 21 24 25 27 29 32 33 36 39 41 44 47 49 49 51 53 53 53 54 55 56 56 56 56 56 56 56 55 54 52 50 49 47 45 43 41 39 38 38 37
15 17 19 21 23 24 26 28 30 33 36 38 40 42 45 49 51 53 54 54 54 54 54 55 55 56 56 56 56 55 54 53 51 49 48 46 43 42 39 37 35 35 34 33
17 19 20 22 24 26 27 29 31 33 36 38 41 43 46 49 51 52 53 53 53 53 54 55 55 55 55 55 55 54 52 50 48 47 45 42 39 36 33 31 30 30 29 29
19 20 22 24 25 26 28 29 31 33 36 39 42 44 47 49 51 52 53 53 53 53 54 54 54 54 54 54 53 53 51 48 46 44 41 38 34 31 28 25 24 24 25 26
19 21 22 24 25 26 27 29 31 34 37 40 43 46 48 50 51 52 53 53 53 53 53 54 53 53 53 53 52 51 49 47 44 41 38 34 30 27 23 21 19 18 19 21
21 22 22 23 25 26 27 29 32 35 38 41 43 47 49 50 51 53 53 53 53 52 53 53 53 53 53 52 50 49 47 45 42 40 36 32 28 25 20 17 14 13 14 16
22 22 23 24 26 27 29 30 33 36 38 41 44 46 49 50 51 52 52 53 53 52 52 52 52 52 52 51 49 47 46 43 41 38 35 30 26 23 19 14 11 9 10 12
Wind_Direction
249 249 251 254 255 256 258 259 259 257 259 261 264 267 269 269 270 271 273 276 279 281 282 284 287 289 291 294 296 298 298 302 304 303 303 298 288 282 279 273 267 267 268 264
243 244 251 255 258 259 261 264 266 265 267 268 269 269 270 272 276 277 278 280 282 284 284 286 288 288 291 292 296 298 300 302 303 303 304 304 301 296 291 284 272 268 268 264
243 250 254 257 260 263 267 271 272 274 277 276 276 275 277 279 282 283 284 284 286 287 287 289 288 288 288 292 295 296 298 298 299 300 300 298 297 295 292 287 278 274 272 270
250 259 261 260 263 272 278 280 280 278 281 283 283 282 282 285 288 288 288 287 288 289 289 291 292 292 293 294 295 295 294 294 294 295 295 293 294 294 291 286 282 276 273 272
263 270 267 265 269 277 284 291 292 292 291 288 288 288 290 291 292 293 294 295 296 296 296 293 292 293 294 294 294 294 293 291 291 292 292 291 290 289 287 284 281 277 274 270
275 273 273 274 281 285 290 299 306 308 304 300 298 296 296 296 296 297 300 301 304 305 304 301 297 298 298 297 296 295 293 291 291 291 290 289 287 285 283 280 277 273 270 268
308 294 287 280 288 298 301 306 312 313 312 308 306 304 303 301 300 301 304 305 306 306 304 304 302 302 300 298 296 295 294 292 292 291 290 287 285 282 280 277 274 271 268 266
337 310 297 288 291 296 300 304 311 317 317 314 307 306 306 304 304 306 307 308 309 309 307 306 304 303 301 298 297 296 295 293 292 291 289 287 285 282 279 277 274 271 268 265
336 311 302 297 297 299 303 306 312 312 313 312 309 307 306 306 307 309 310 311 311 310 309 308 306 304 303 301 299 297 295 294 293 291 289 286 284 281 279 276 274 271 268 265
337 325 311 310 307 310 312 316 318 318 316 316 315 313 313 311 311 312 313 313 313 312 311 310 309 308 306 305 303 301 299 296 294 292 290 287 284 281 279 276 273 270 268 265
326 322 319 317 318 321 320 320 319 317 316 316 316 317 316 315 316 316 316 315 314 314 314 314 313 312 310 309 307 306 304 302 300 297 294 291 288 285 282 279 276 272 269 266
321 322 322 322 321 322 319 319 318 318 318 317 318 319 319 318 318 317 317 317 317 318 318 317 316 315 314 313 311 310 308 306 304 302 300 297 294 291 287 284 280 276 271 266
320 322 323 324 324 324 320 317 316 317 319 320 320 320 320 319 319 319 319 320 320 320 320 319 318 317 316 314 313 311 310 308 307 305 302 300 298 295 292 289 285 280 275 270
325 325 324 325 325 322 318 317 318 320 322 321 321 321 321 321 322 322 323 323 323 322 322 320 319 318 316 315 314 312 311 309 307 306 304 301 299 297 294 290 286 281 276 272
329 328 327 326 326 323 322 322 324 325 325 323 324 324 325 325 326 326 325 325 325 324 323 321 320 319 317 316 314 313 311 310 308 306 304 301 299 296 293 290 286 281 276 272
328 327 329 328 327 326 326 326 327 329 327 326 326 327 328 329 329 328 328 328 327 325 324 323 322 320 319 317 315 313 312 310 308 306 303 300 298 295 291 289 285 281 276 272
323 324 326 327 329 329 326 328 330 331 329 330 331 332 332 332 333 331 329 329 328 327 326 325 324 323 321 319 317 315 313 311 309 306 303 300 296 293 290 287 284 279 275 271
321 321 324 327 330 331 330 330 331 333 333 333 334 334 334 335 336 333 331 331 330 329 328 327 326 325 322 320 318 316 315 313 310 307 305 301 298 293 289 285 282 277 272 268
320 323 326 329 332 332 331 331 333 335 337 336 336 336 336 336 337 335 332 332 331 331 331 330 329 327 325 323 321 319 317 315 312 309 307 304 300 295 290 286 280 275 271 265
320 324 328 330 332 333 333 333 335 336 337 338 338 338 338 337 337 337 335 335 335 335 333 332 331 330 328 326 324 322 320 317 314 313 311 307 302 297 292 285 279 273 268 263
321 325 327 329 330 331 332 333 335 335 337 338 339 339 339 339 338 339 338 338 337 337 336 335 334 332 330 329 327 326 325 322 320 317 315 311 307 300 294 287 279 272 266 259
319 322 324 327 330 331 332 332 334 335 337 338 339 339 340 340 340 340 340 339 339 338 338 337 336 335 334 333 332 331 329 327 325 323 321 316 311 306 299 290 280 271 262 256
316 319 322 326 328 330 331 331 333 335 337 339 339 340 341 341 342 342 341 341 341 340 340 339 339 339 339 337 336 336 335 333 331 328 326 323 318 312 304 293 284 273 261 253
312 314 319 323 326 327 329 330 334 336 338 339 340 341 342 343 343 343 343 343 342 342 341 342 342 342 342 341 340 340 340 339 338 336 334 331 328 322 313 301 288 274 259 249
309 313 318 321 324 327 329 331 335 337 338 339 341 342 343 344 344 344 344 344 344 343 343 344 345 345 345 345 345 345 345 346 346 344 342 339 337 334 326 313 296 277 258 245
309 313 317 321 324 327 330 332 334 336 337 339 341 343 343 344 345 345 345 346 345 346 346 347 347 348 348 349 349 349 350 351 352 351 351 349 348 346 341 331 313 286 258 239
Height
5854 5856 5856 5856 5857 5858 5857 5857 5858 5858 5858 5858 5857 5857 5857 5857 5856 5856 5856 5855 5854 5853 5850 5847 5844 5841 5837 5834 5831 5828 5825 5820 5817 5813 5810 5807 5804 5802 5802 5802 5802 5803 5804 5805
5853 5854 5854 5854 5854 5855 5855 5855 5854 5854 5854 5854 5853 5853 5853 5852 5852 5851 5851 5850 5848 5845 5843 5840 5837 5834 5831 5827 5824 5821 5818 5815 5812 5810 5807 5804 5801 5799 5798 5797 5797 5797 5798 5798
5851 5852 5852 5852 5852 5852 5852 5852 5852 5851 5851 5850 5850 5849 5849 5848 5847 5846 5845 5843 5841 5838 5835 5832 5829 5826 5823 5820 5817 5815 5812 5810 5807 5805 5802 5800 5798 5796 5794 5793 5793 5793 5793 5793
5850 5850 5851 5851 5850 5850 5850 5850 5850 5849 5848 5847 5847 5845 5845 5843 5842 5841 5838 5836 5834 5831 5828 5825 5822 5819 5816 5813 5810 5808 5806 5804 5801 5799 5797 5795 5792 5791 5789 5788 5787 5787 5786 5787
5849 5849 5849 5849 5849 5849 5849 5848 5847 5846 5845 5844 5843 5842 5842 5840 5838 5835 5833 5830 5827 5824 5821 5818 5815 5812 5809 5807 5804 5801 5798 5796 5794 5791 5789 5787 5785 5783 5782 5781 5780 5779 5779 5779
5848 5847 5847 5847 5847 5847 5847 5846 5845 5844 5843 5842 5840 5839 5838 5835 5833 5831 5828 5825 5822 5819 5816 5812 5809 5806 5803 5799 5796 5793 5790 5787 5784 5782 5779 5777 5775 5773 5772 5771 5770 5770 5770 5770
5847 5847 5846 5846 5846 5846 5845 5845 5844 5842 5841 5840 5838 5836 5835 5832 5829 5827 5824 5820 5817 5814 5810 5807 5803 5799 5795 5791 5787 5784 5780 5776 5773 5770 5767 5765 5763 5761 5760 5758 5757 5757 5757 5757
5846 5846 5845 5845 5845 5844 5843 5843 5842 5840 5838 5837 5835 5833 5832 5828 5825 5822 5819 5815 5812 5808 5804 5800 5795 5791 5787 5782 5777 5773 5768 5764 5761 5757 5754 5751 5748 5746 5744 5743 5742 5741 5741 5742
5846 5845 5844 5843 5842 5842 5841 5840 5839 5837 5835 5833 5832 5830 5827 5824 5821 5817 5813 5810 5805 5801 5796 5792 5787 5782 5777 5772 5766 5761 5756 5752 5747 5743 5739 5735 5732 5729 5727 5725 5724 5723 5723 5724
5845 5844 5843 5842 5841 5840 5839 5837 5836 5834 5831 5829 5828 5825 5823 5819 5815 5812 5807 5803 5798 5793 5788 5782 5776 5771 5765 5759 5753 5748 5742 5737 5732 5727 5723 5719 5715 5711 5708 5706 5705 5704 5703 5703
5844 5843 5842 5841 5839 5838 5837 5835 5833 5830 5828 5826 5823 5823 5818 5814 5809 5805 5800 5795 5789 5783 5777 5771 5764 5757 5750 5743 5737 5731 5725 5719 5714 5708 5704 5700 5695 5692 5688 5686 5684 5682 5681 5681
5842 5842 5840 5839 5837 5836 5834 5832 5830 5828 5825 5822 5819 5819 5812 5807 5803 5798 5792 5786 5780 5773 5765 5758 5750 5742 5735 5727 5720 5712 5706 5699 5693 5687 5683 5678 5675 5671 5668 5665 5662 5660 5659 5659
5841 5840 5839 5837 5837 5835 5831 5829 5827 5825 5822 5818 5815 5814 5806 5802 5796 5791 5784 5777 5770 5762 5754 5746 5738 5729 5721 5712 5704 5696 5688 5681 5675 5669 5663 5659 5654 5650 5647 5644 5642 5640 5639 5638
5839 5838 5838 5836 5834 5831 5829 5826 5824 5821 5818 5814 5811 5807 5802 5796 5790 5783 5775 5768 5760 5752 5743 5734 5725 5716 5707 5698 5689 5681 5673 5665 5657 5651 5645 5639 5635 5631 5628 5625 5623 5621 5620 5619
5838 5836 5835 5833 5831 5829 5826 5824 5821 5818 5814 5810 5806 5801 5796 5789 5782 5775 5766 5759 5750 5742 5732 5723 5713 5703 5694 5685 5676 5667 5658 5649 5641 5634 5627 5621 5616 5612 5609 5606 5604 5603 5602 5602
5835 5834 5833 5831 5829 5826 5824 5821 5818 5814 5810 5806 5801 5796 5790 5782 5774 5766 5757 5749 5740 5731 5721 5711 5701 5691 5681 5671 5662 5653 5644 5635 5626 5618 5611 5604 5599 5594 5591 5588 5586 5585 5584 5585
5834 5832 5831 5829 5826 5824 5821 5818 5814 5811 5806 5801 5795 5790 5783 5776 5768 5758 5749 5740 5730 5720 5709 5699 5689 5678 5668 5658 5648 5639 5629 5620 5611 5602 5594 5587 5581 5576 5573 5570 5568 5567 5567 5567
5833 5831 5829 5826 5825 5821 5820 5814 5810 5807 5802 5796 5790 5783 5776 5769 5761 5750 5740 5730 5720 5709 5699 5689 5678 5667 5656 5645 5635 5625 5615 5605 5595 5586 5577 5569 5562 5557 5554 5551 5549 5549 5549 5550
5831 5829 5827 5824 5820 5818 5815 5810 5805 5801 5797 5791 5784 5777 5769 5761 5755 5746 5734 5723 5712 5700 5689 5678 5667 5656 5645 5633 5622 5611 5601 5590 5579 5570 5560 5552 5545 5540 5536 5533 5532 5532 5532 5534
5829 5827 5824 5820 5817 5814 5811 5806 5800 5796 5791 5785 5777 5770 5762 5753 5745 5738 5726 5714 5702 5691 5680 5669 5657 5645 5633 5622 5610 5598 5587 5575 5565 5554 5545 5536 5529 5523 5519 5516 5516 5516 5517 5519
5826 5823 5820 5817 5814 5811 5807 5801 5797 5792 5787 5779 5771 5764 5756 5746 5737 5727 5716 5704 5693 5682 5671 5660 5648 5636 5623 5611 5598 5586 5574 5562 5551 5540 5531 5521 5514 5508 5503 5501 5500 5501 5502 5505
5823 5820 5817 5814 5810 5808 5802 5797 5793 5788 5781 5774 5767 5759 5750 5741 5731 5720 5709 5697 5686 5675 5664 5652 5640 5628 5614 5601 5588 5575 5563 5551 5540 5529 5519 5509 5502 5495 5491 5488 5487 5488 5490 5493
5819 5817 5813 5811 5808 5803 5798 5794 5789 5783 5777 5769 5762 5754 5745 5735 5724 5714 5703 5691 5680 5668 5657 5645 5633 5620 5607 5593 5579 5567 5554 5542 5530 5519 5509 5500 5492 5486 5481 5478 5477 5478 5480 5483
5816 5813 5810 5806 5803 5799 5795 5790 5784 5778 5772 5764 5756 5748 5738 5728 5718 5707 5696 5685 5674 5663 5651 5639 5627 5614 5601 5587 5573 5560 5547 5534 5523 5512 5502 5493 5486 5479 5475 5472 5470 5471 5473 5476
5812 5809 5806 5802 5799 5795 5790 5785 5780 5774 5767 5759 5751 5742 5733 5723 5713 5702 5691 5680 5669 5657 5646 5633 5621 5608 5595 5582 5568 5555 5542 5530 5518 5508 5498 5489 5482 5475 5470 5467 5466 5466 5468 5471
5807 5805 5801 5798 5794 5790 5786 5780 5775 5769 5762 5755 5747 5738 5728 5718 5708 5698 5687 5676 5664 5652 5641 5629 5617 5604 5591 5578 5565 5552 5539 5527 5516 5506 5496 5488 5480 5474 5469 5465 5464 5464 5465 5468